[[{"header":{"parameterUnit":"m.s-1","parameterCategory":1,"la1":30.2991,"la2":30.254,"lo1":-89.0895,"lo2":-89.0444,"dy":0.0017,"dx":0.0017,"nx":28,"ny":28,"refTime":"2024-08-27T03:00:00:Z","depth":0,"parameterNumber":2,"parameterNumberName":"U-component_of_WINDS"},"data":[0,0,0,0,0,0,0,0,0,0,0,0,0,0,0,0,0,0,0,0,0,0,0,0,0,0,0,0,0,0,0,0,0,0,0,0,0,0,0,0,0,0,0,0,0,0,0,0,0,0,0,0,0,0,0,0,0,0,0.9242,0.9241,0,0.9164,0.9163,0.9162,0.9117,0.9117,0.9117,0.9116,0.9032,0.903,0.9028,0,0,0,0,0,0,0,0,0,0,0,0,0,0.9347,0.9345,0.9242,0.9241,0.924,0.9164,0.9163,0.9162,0.9117,0.9117,0.9116,0.9116,0.9032,0.903,0.9027,0,0,0,0,0,0,0,0,0,0,0,0,0,0.9288,0.9345,0.9242,0.9208,0.9205,0.9164,0.9163,0.9162,0.9117,0.9117,0.9116,0.9116,0.9033,0.903,0.9027,0.9013,0,0,0.9017,0.9016,0,0,0,0,0,0,0,0,0.9292,0.9285,0.9214,0.9211,0.9206,0.915,0.9169,0.9112,0.9117,0.915,0.9116,0.9116,0.9071,0.9065,0.905,0.9009,0.9005,0.9017,0.9015,0.9014,0.9013,0,0,0,0,0,0,0,0.9296,0.9288,0.9211,0.9213,0.9208,0.9196,0.9187,0.9158,0.9113,0.9147,0.9144,0.9135,0.9069,0.9054,0.9048,0.9004,0.9017,0.9014,0.9012,0.9011,0.8947,0.8947,0,0,0,0,0,0,0.9306,0.9291,0.9213,0.9209,0.9249,0.9194,0.9184,0.9168,0.9113,0.9104,0.9136,0.9134,0.9059,0.9052,0.9045,0.9024,0.9014,0.9011,0.9009,0.8946,0.8947,0.8947,0,0,0,0,0,0,0.9308,0.9299,0.9216,0.9249,0.9237,0.9193,0.9175,0.9167,0.9152,0.9104,0.9096,0.9129,0.9059,0.9049,0.9021,0.9021,0.9009,0.9007,0.8946,0.8947,0.8947,0.8984,0,0,0,0,0,0,0.9312,0.9301,0.9296,0.9249,0.9236,0.9196,0.9175,0.9165,0.9147,0.9144,0.9096,0.9087,0.9058,0.9026,0.9018,0.9016,0.9004,0.8946,0.8946,0.8947,0.8982,0.8985,0.8988,0,0,0,0,0,0.9316,0.9308,0.9295,0.9286,0.9229,0.9196,0.9188,0.9155,0.9147,0.9141,0.9111,0.9089,0.9023,0.9024,0.9014,0.9012,0.8946,0.8946,0.8947,0.8981,0.8985,0.8988,0,0,0,0,0,0,0.9353,0.9301,0.9287,0.9264,0.9235,0.9188,0.9179,0.916,0.9131,0.9129,0.9088,0.9078,0.9054,0.903,0.9032,0.8995,0.8982,0.898,0.9011,0.9014,0.9017,0.9023,0.9002,0,0,0,0,0,0.9359,0.9338,0.9293,0.9277,0.9264,0.9224,0.9208,0.9186,0.9154,0.914,0.9108,0.9076,0.9048,0.903,0.9001,0.8979,0.8968,0.8973,0.8975,0.8978,0.8976,0.8963,0.8965,0.8948,0.8948,0.8948,0,0,0.937,0.9339,0.9328,0.9284,0.9259,0.9236,0.9214,0.9191,0.9174,0.9136,0.9108,0.9084,0.9045,0.902,0.9008,0.8999,0.8979,0.8978,0.8981,0.8978,0.8964,0.8965,0.8967,0.8948,0.8948,0.8948,0,0,0.9379,0.9354,0.9339,0.9314,0.9277,0.9252,0.9248,0.9204,0.9187,0.9159,0.9131,0.9109,0.9062,0.9035,0.9016,0.9017,0.8996,0.9009,0.9022,0.901,0.9011,0.9012,0.9012,0.9013,0.9008,0.9008,0.9008,0,0.9397,0.9364,0.9333,0.9312,0.9293,0.9261,0.9244,0.9221,0.9176,0.9163,0.9156,0.9097,0.9068,0.9037,0.9038,0.9023,0.9017,0.9014,0.9014,0.9015,0.9015,0.9014,0.9015,0.901,0.901,0.901,0.901,0,0.9388,0.9366,0.9357,0.9317,0.9297,0.9279,0.9243,0.9227,0.9207,0.9182,0.9154,0.9119,0.9083,0.9074,0.9053,0.904,0.9036,0.9022,0.9008,0.9019,0.9018,0.9017,0.9013,0.9012,0.9012,0.9011,0,0,0.9417,0.9361,0.9358,0.934,0.9297,0.9278,0.9258,0.9225,0.9212,0.9182,0.9164,0.9125,0.9112,0.909,0.9067,0.9056,0.9059,0.9042,0.9041,0.9046,0.9041,0.9052,0.9052,0.9045,0.9045,0.9045,0.9045,0,0.9419,0.9383,0.9355,0.9329,0.9307,0.9277,0.926,0.9231,0.9207,0.9185,0.9158,0.9131,0.9116,0.9103,0.9091,0.9061,0.9057,0.9061,0.9026,0.9025,0.9036,0.9052,0.9062,0.9064,0.9044,0.9044,0.9044,0,0.9417,0.939,0.9363,0.9324,0.9314,0.9299,0.9266,0.9246,0.9213,0.9196,0.9173,0.9149,0.9125,0.9115,0.9081,0.9084,0.9068,0.9052,0.9051,0.9045,0.9034,0.9046,0.9063,0.9063,0.9043,0.9043,0.9043,0,0.944,0.9397,0.9376,0.9361,0.9315,0.9305,0.9285,0.9252,0.9234,0.9206,0.9193,0.9162,0.9145,0.912,0.9088,0.9084,0.9058,0.9045,0.9042,0.9043,0.9037,0.9038,0.9051,0.9029,0.9029,0.9029,0.9029,0,0.9445,0.9429,0.9386,0.9372,0.9353,0.9321,0.9303,0.928,0.9251,0.9232,0.9204,0.9186,0.9145,0.9122,0.9097,0.9072,0.9065,0.905,0.9043,0.9052,0.9054,0.904,0.9038,0.9029,0.9029,0.9029,0.9029,0,0.9466,0.9437,0.9411,0.9371,0.936,0.9348,0.9312,0.9298,0.9274,0.9249,0.9242,0.9203,0.9175,0.9141,0.9101,0.9084,0.9062,0.9052,0.9073,0.9069,0.9069,0.9069,0.9073,0.9072,0.9051,0.9052,0.9052,0,0.9471,0.9458,0.9417,0.9403,0.9385,0.9362,0.9345,0.9313,0.9295,0.9258,0.9247,0.9217,0.9191,0.9147,0.9114,0.9084,0.9073,0.9076,0.9068,0.9077,0.9072,0.9073,0.9071,0.9078,0.9079,0.9079,0.9079,0,0.9482,0.9469,0.9445,0.9418,0.9398,0.9374,0.9348,0.9338,0.93,0.9282,0.9254,0.9234,0.9195,0.9165,0.9131,0.9108,0.9087,0.9083,0.908,0.9088,0.9101,0.9094,0.9079,0.9082,0.9082,0.9082,0.9081,0.9081,0.9495,0.9482,0.9452,0.9427,0.9405,0.9383,0.9367,0.9342,0.9318,0.9285,0.9267,0.9239,0.9207,0.9159,0.9138,0.9114,0.9107,0.9104,0.9103,0.9102,0.9104,0.9106,0.9108,0.9108,0.9108,0.9108,0.9107,0,0.9504,0.9483,0.9461,0.9427,0.9408,0.9393,0.9364,0.9348,0.9324,0.9297,0.9273,0.9241,0.9212,0.9178,0.9147,0.9135,0.9124,0.9128,0.9127,0.9123,0.9113,0.9118,0.9137,0.9137,0.9137,0.9137,0.9137,0.9137,0.9506,0.9485,0.9468,0.9435,0.9414,0.9388,0.9373,0.9352,0.933,0.9296,0.9273,0.9252,0.9221,0.9188,0.9161,0.9151,0.9141,0.9147,0.9134,0.9126,0.9123,0.9121,0.9125,0.9145,0.9145,0.9146,0.9146,0.9146]},{"header":{"parameterUnit":"m.s-1","parameterCategory":1,"la1":30.2991,"la2":30.254,"lo1":-89.0895,"lo2":-89.0444,"dy":0.0017,"dx":0.0017,"nx":28,"ny":28,"refTime":"2024-08-27T03:00:00:Z","depth":0,"parameterNumber":3,"parameterNumberName":"V-component_of_WINDS"},"data":[0,0,0,0,0,0,0,0,0,0,0,0,0,0,0,0,0,0,0,0,0,0,0,0,0,0,0,0,0,0,0,0,0,0,0,0,0,0,0,0,0,0,0,0,0,0,0,0,0,0,0,0,0,0,0,0,0,0,-3.4362,-3.4362,0,-3.4414,-3.4415,-3.4415,-3.4387,-3.4385,-3.4384,-3.4383,-3.4431,-3.4434,-3.4436,0,0,0,0,0,0,0,0,0,0,0,0,0,-3.4231,-3.4234,-3.4362,-3.4362,-3.4363,-3.4414,-3.4415,-3.4416,-3.4387,-3.4385,-3.4384,-3.4382,-3.443,-3.4433,-3.4436,0,0,0,0,0,0,0,0,0,0,0,0,0,-3.4286,-3.4235,-3.4362,-3.4355,-3.4355,-3.4414,-3.4415,-3.4416,-3.4387,-3.4385,-3.4383,-3.4381,-3.4429,-3.4433,-3.4437,-3.4504,0,0,-3.4449,-3.445,0,0,0,0,0,0,0,0,-3.4283,-3.4291,-3.4355,-3.4356,-3.4356,-3.4392,-3.4387,-3.4445,-3.4388,-3.4375,-3.4383,-3.438,-3.4419,-3.4424,-3.4438,-3.4506,-3.4508,-3.4449,-3.4451,-3.4453,-3.4454,0,0,0,0,0,0,0,-3.4279,-3.4289,-3.4382,-3.4356,-3.4356,-3.4348,-3.4353,-3.4398,-3.4408,-3.4376,-3.4374,-3.4381,-3.4419,-3.4435,-3.4439,-3.4509,-3.4449,-3.4452,-3.4455,-3.4456,-3.4633,-3.4635,0,0,0,0,0,0,-3.4277,-3.4286,-3.4381,-3.4384,-3.4314,-3.4352,-3.4358,-3.4382,-3.4408,-3.441,-3.4383,-3.4379,-3.4429,-3.4435,-3.4441,-3.452,-3.4453,-3.4457,-3.4459,-3.4631,-3.4634,-3.4636,0,0,0,0,0,0,-3.4274,-3.4285,-3.4378,-3.4334,-3.4345,-3.4356,-3.4384,-3.4384,-3.44,-3.4413,-3.4414,-3.4397,-3.4427,-3.4435,-3.4488,-3.4522,-3.4459,-3.4462,-3.4628,-3.4632,-3.4635,-3.468,0,0,0,0,0,0,-3.427,-3.4285,-3.4311,-3.4335,-3.4348,-3.4427,-3.4386,-3.4387,-3.4408,-3.4404,-3.4427,-3.4428,-3.4426,-3.4483,-3.4492,-3.4526,-3.4465,-3.4625,-3.463,-3.4634,-3.4676,-3.4685,-3.4693,0,0,0,0,0,-3.4266,-3.4321,-3.4313,-3.4324,-3.4382,-3.4429,-3.4436,-3.4434,-3.441,-3.4436,-3.4445,-3.4428,-3.4517,-3.4488,-3.4499,-3.4534,-3.4623,-3.4628,-3.4633,-3.4672,-3.4683,-3.4692,0,0,0,0,0,0,-3.4298,-3.4324,-3.4315,-3.438,-3.4403,-3.4424,-3.4457,-3.4446,-3.4475,-3.447,-3.4465,-3.447,-3.4525,-3.4535,-3.4503,-3.46,-3.4566,-3.4573,-3.4592,-3.4602,-3.461,-3.4606,-3.4468,0,0,0,0,0,-3.4314,-3.4352,-3.4371,-3.4426,-3.4438,-3.4446,-3.4466,-3.4463,-3.4486,-3.4494,-3.4507,-3.4528,-3.456,-3.4582,-3.4613,-3.4677,-3.4681,-3.4707,-3.4715,-3.4722,-3.4728,-3.4763,-3.4774,-3.4653,-3.4653,-3.4653,0,0,-3.4344,-3.4363,-3.4387,-3.4433,-3.445,-3.4488,-3.4454,-3.4495,-3.4523,-3.45,-3.4552,-3.4561,-3.4584,-3.4644,-3.467,-3.4653,-3.4763,-3.4729,-3.4734,-3.4737,-3.4769,-3.4781,-3.4791,-3.4657,-3.4656,-3.4656,0,0,-3.442,-3.4438,-3.4486,-3.4505,-3.4532,-3.4537,-3.4549,-3.4572,-3.4578,-3.463,-3.4614,-3.4646,-3.4702,-3.472,-3.4736,-3.4819,-3.4804,-3.4829,-3.4872,-3.4906,-3.4915,-3.4924,-3.4952,-3.4963,-3.4835,-3.4835,-3.4835,0,-3.4454,-3.4512,-3.4512,-3.4555,-3.4575,-3.4559,-3.4606,-3.4624,-3.4659,-3.4673,-3.4654,-3.4725,-3.4739,-3.4802,-3.4823,-3.4836,-3.4848,-3.4825,-3.4914,-3.4923,-3.493,-3.4958,-3.4969,-3.4838,-3.4838,-3.4837,-3.4837,0,-3.4552,-3.4593,-3.4628,-3.4665,-3.4689,-3.4734,-3.4739,-3.4764,-3.4759,-3.4765,-3.4817,-3.4835,-3.4869,-3.4883,-3.4878,-3.4945,-3.4934,-3.4915,-3.488,-3.4945,-3.497,-3.4981,-3.4842,-3.4841,-3.484,-3.4839,0,0,-3.4649,-3.4686,-3.4699,-3.4715,-3.4745,-3.4775,-3.4819,-3.4854,-3.4875,-3.49,-3.4935,-3.4984,-3.4967,-3.4985,-3.4982,-3.5012,-3.5076,-3.4989,-3.4989,-3.5004,-3.515,-3.5164,-3.5176,-3.5066,-3.5068,-3.507,-3.5148,0,-3.4726,-3.4805,-3.4806,-3.4878,-3.4915,-3.49,-3.4938,-3.4959,-3.4966,-3.4997,-3.5004,-3.5039,-3.5014,-3.5025,-3.5054,-3.5062,-3.5105,-3.5056,-3.5098,-3.5099,-3.5092,-3.519,-3.5204,-3.5277,-3.5158,-3.516,-3.5161,0,-3.4826,-3.4857,-3.4933,-3.4957,-3.4973,-3.5007,-3.5039,-3.507,-3.5093,-3.5096,-3.5118,-3.511,-3.5153,-3.5118,-3.5176,-3.5143,-3.516,-3.5167,-3.517,-3.5173,-3.5133,-3.5194,-3.53,-3.5311,-3.5177,-3.5176,-3.5174,0,-3.4888,-3.4948,-3.5001,-3.5016,-3.5046,-3.507,-3.5084,-3.5105,-3.5126,-3.5154,-3.5167,-3.5199,-3.5216,-3.524,-3.5241,-3.5215,-3.53,-3.5265,-3.5302,-3.5302,-3.532,-3.5318,-3.5429,-3.5332,-3.5332,-3.5332,-3.5332,0,-3.4974,-3.502,-3.503,-3.5063,-3.5114,-3.5115,-3.5165,-3.5176,-3.5195,-3.5229,-3.5217,-3.5248,-3.5247,-3.5278,-3.5279,-3.5327,-3.5335,-3.5337,-3.5337,-3.5338,-3.5338,-3.5348,-3.5343,-3.5335,-3.5334,-3.5333,-3.5333,0,-3.5051,-3.506,-3.5117,-3.5141,-3.5148,-3.5185,-3.5205,-3.5236,-3.5242,-3.5284,-3.5294,-3.5304,-3.534,-3.5343,-3.5385,-3.5385,-3.5443,-3.5437,-3.5436,-3.5434,-3.5471,-3.5467,-3.5592,-3.5608,-3.5501,-3.5502,-3.5503,0,-3.5105,-3.5141,-3.517,-3.5193,-3.5208,-3.5244,-3.5266,-3.5267,-3.529,-3.532,-3.5347,-3.5382,-3.5411,-3.5469,-3.5478,-3.551,-3.5504,-3.5546,-3.5509,-3.5509,-3.5504,-3.5501,-3.5505,-3.5552,-3.5554,-3.5554,-3.5555,0,-3.5199,-3.5202,-3.5235,-3.527,-3.5298,-3.5325,-3.535,-3.5368,-3.5372,-3.5399,-3.5437,-3.5459,-3.5502,-3.5537,-3.5568,-3.5579,-3.5568,-3.5567,-3.5577,-3.5578,-3.5576,-3.5577,-3.5454,-3.5564,-3.5563,-3.5562,-3.5562,-3.5562,-3.5266,-3.5297,-3.5323,-3.536,-3.538,-3.5404,-3.5434,-3.5445,-3.5478,-3.5514,-3.5513,-3.5554,-3.5576,-3.5617,-3.5631,-3.5662,-3.5648,-3.5663,-3.5666,-3.567,-3.5674,-3.5572,-3.5668,-3.5668,-3.5667,-3.5667,-3.5667,0,-3.5359,-3.5375,-3.541,-3.5447,-3.5476,-3.5465,-3.5492,-3.5517,-3.5554,-3.5576,-3.5605,-3.5648,-3.5682,-3.5695,-3.5728,-3.5751,-3.5746,-3.5759,-3.5757,-3.5759,-3.5685,-3.5672,-3.5762,-3.5762,-3.5762,-3.5762,-3.5762,-3.5762,-3.5411,-3.5464,-3.5469,-3.5531,-3.5546,-3.5589,-3.5605,-3.5627,-3.5645,-3.5694,-3.5723,-3.5732,-3.575,-3.5784,-3.5814,-3.5817,-3.5829,-3.5844,-3.5845,-3.5774,-3.5765,-3.5756,-3.5744,-3.5847,-3.5847,-3.5917,-3.5918,-3.5918]}]]